Location: Asheville, NC
(35.6000°N, 82.5500°W)
Time: 17:29:53
(UTC-04:00)

JUGNU - Pass Details

Date: 07 January 2018
Orbit: 837 x 864 km, 20.0° (Epoch: 20 July)

Event Time Altitude Azimuth Distance (km) Brightness Sun altitude
Rises 18:56:52 0° 241° (WSW) 3,417 ? -16.7°
Reaches altitude 10° 19:00:21 10° 221° (SW) 2,482 ? -17.3°
Maximum altitude 19:04:01 17° 183° (S) 2,041 ? -18.1°
Drops below altitude 10° 19:07:42 10° 145° (SE) 2,483 ? -18.8°
Enters shadow 19:08:50 - 137° (SE) 2,751 ? -19.0°
